When you browse on this site, cookies collect data to enhance your experience and personalize the content and advertising you see.
Visit our Privacy Policy to learn more. By continuing to use the site, you agree to this use of cookies and data.
  • In Hungary
  • List of Countries
  • For 7 days
  • Water Temperature
  • Weather Map
  • News
  • Weather Widgets
  • user-avatar
    Login

    Hourly Weather Chrustowo

    Today, 14 December, Saturday

    Time Temperature Precipitation Wind Pressure Humidity
    00:00 -1°C° 0 mm 4 mps 734 mmHg 84%
    01:00 -1°C° 0 mm 4 mps 734 mmHg 84%
    02:00 0°C° 0 mm 5 mps 734 mmHg 84%
    03:00 0°C° 0 mm 5 mps 734 mmHg 85%
    04:00 +1°C° 0 mm 5 mps 734 mmHg 86%
    05:00 +1°C° 0.2 mm 6 mps 734 mmHg 87%
    06:00 +1°C° 0.2 mm 6 mps 734 mmHg 89%
    07:00 +1°C° 0 mm 6 mps 734 mmHg 89%
    08:00 +1°C° 0.1 mm 6 mps 735 mmHg 90%
    09:00 +2°C° 0.1 mm 5 mps 735 mmHg 91%
    10:00 +2°C° 0.1 mm 5 mps 735 mmHg 92%
    11:00 +3°C° 0 mm 5 mps 735 mmHg 86%
    12:00 +3°C° 0 mm 5 mps 735 mmHg 80%
    13:00 +3°C° 0 mm 6 mps 735 mmHg 74%
    14:00 +3°C° 0.5 mm 5 mps 736 mmHg 81%
    15:00 +2°C° 0.5 mm 5 mps 736 mmHg 88%
    16:00 +1°C° 0.5 mm 5 mps 736 mmHg 96%
    17:00 +1°C° 0.3 mm 6 mps 737 mmHg 92%
    18:00 +2°C° 0.3 mm 6 mps 738 mmHg 87%
    19:00 +2°C° 0.3 mm 7 mps 738 mmHg 83%
    20:00 +2°C° 0 mm 6 mps 739 mmHg 82%
    21:00 +2°C° 0 mm 6 mps 740 mmHg 82%
    22:00 +2°C° 0 mm 5 mps 740 mmHg 81%
    23:00 +1°C° 0.1 mm 5 mps 741 mmHg 84%

    Tomorrow, 15 December, Sunday

    Time Temperature Precipitation Wind Pressure Humidity
    00:00 +1°C° 0.1 mm 5 mps 742 mmHg 88%
    01:00 +1°C° 0.1 mm 5 mps 742 mmHg 91%
    02:00 +1°C° 0.1 mm 5 mps 743 mmHg 90%
    03:00 +1°C° 0.1 mm 5 mps 743 mmHg 89%
    04:00 +1°C° 0.1 mm 5 mps 744 mmHg 89%
    05:00 +1°C° 0 mm 5 mps 744 mmHg 89%
    06:00 +1°C° 0 mm 4 mps 745 mmHg 89%
    07:00 0°C° 0 mm 4 mps 745 mmHg 89%
    08:00 +1°C° 0 mm 4 mps 745 mmHg 82%
    09:00 +1°C° 0 mm 5 mps 745 mmHg 75%
    10:00 +2°C° 0 mm 6 mps 745 mmHg 68%
    11:00 +2°C° 0.7 mm 6 mps 745 mmHg 75%
    12:00 +3°C° 0.7 mm 7 mps 744 mmHg 82%
    13:00 +3°C° 0.7 mm 7 mps 744 mmHg 89%
    14:00 +4°C° 0.1 mm 7 mps 744 mmHg 89%
    15:00 +4°C° 0.1 mm 6 mps 745 mmHg 88%
    16:00 +6°C° 0.1 mm 5 mps 745 mmHg 87%
    17:00 +6°C° 0 mm 5 mps 746 mmHg 86%
    18:00 +5°C° 0 mm 5 mps 747 mmHg 84%
    19:00 +5°C° 0 mm 4 mps 748 mmHg 83%
    20:00 +4°C° 0 mm 4 mps 749 mmHg 83%
    21:00 +4°C° 0 mm 4 mps 749 mmHg 84%
    22:00 +3°C° 0 mm 4 mps 750 mmHg 84%
    23:00 +3°C° 0 mm 4 mps 750 mmHg 86%

    Day after tomorrow, 16 December, Monday

    Time Temperature Precipitation Wind Pressure Humidity
    00:00 +3°C° 0 mm 4 mps 751 mmHg 87%
    01:00 +3°C° 0 mm 4 mps 751 mmHg 88%
    02:00 +3°C° 0 mm 3 mps 751 mmHg 89%
    03:00 +3°C° 0 mm 3 mps 752 mmHg 90%
    04:00 +3°C° 0 mm 3 mps 752 mmHg 91%
    05:00 +3°C° 0 mm 3 mps 752 mmHg 91%
    06:00 +4°C° 0 mm 2 mps 752 mmHg 91%
    07:00 +4°C° 0 mm 2 mps 753 mmHg 91%
    08:00 +3°C° 0 mm 3 mps 753 mmHg 91%
    09:00 +4°C° 0 mm 3 mps 753 mmHg 91%
    10:00 +4°C° 0 mm 3 mps 753 mmHg 90%
    11:00 +5°C° 0 mm 3 mps 753 mmHg 91%
    12:00 +5°C° 0 mm 3 mps 753 mmHg 92%
    13:00 +6°C° 0 mm 4 mps 753 mmHg 93%
    14:00 +7°C° 0 mm 3 mps 753 mmHg 93%
    15:00 +7°C° 0 mm 3 mps 753 mmHg 92%
    16:00 +7°C° 0 mm 3 mps 752 mmHg 92%
    17:00 +7°C° 0 mm 3 mps 752 mmHg 89%
    18:00 +5°C° 0 mm 3 mps 752 mmHg 87%
    19:00 +5°C° 0 mm 3 mps 752 mmHg 84%
    20:00 +5°C° 0 mm 3 mps 752 mmHg 85%
    21:00 +5°C° 0 mm 3 mps 752 mmHg 85%
    22:00 +5°C° 0 mm 3 mps 752 mmHg 86%
    23:00 +5°C° 0 mm 3 mps 752 mmHg 88%

    17 December, Tuesday

    Time Temperature Precipitation Wind Pressure Humidity
    00:00 +4°C° 0 mm 3 mps 751 mmHg 89%
    01:00 +5°C° 0 mm 2 mps 751 mmHg 91%
    02:00 +4°C° 0 mm 3 mps 751 mmHg 92%
    03:00 +3°C° 0 mm 3 mps 751 mmHg 92%
    04:00 +3°C° 0 mm 3 mps 751 mmHg 93%
    05:00 +3°C° 0 mm 3 mps 750 mmHg 92%
    06:00 +3°C° 0 mm 3 mps 750 mmHg 92%
    07:00 +3°C° 0 mm 3 mps 750 mmHg 92%
    08:00 +4°C° 0 mm 3 mps 751 mmHg 89%
    09:00 +4°C° 0 mm 3 mps 751 mmHg 86%
    10:00 +5°C° 0 mm 3 mps 751 mmHg 84%
    11:00 +7°C° 0 mm 3 mps 751 mmHg 81%
    12:00 +8°C° 0 mm 3 mps 751 mmHg 79%
    13:00 +8°C° 0 mm 3 mps 750 mmHg 76%
    14:00 +8°C° 0 mm 3 mps 751 mmHg 80%
    15:00 +7°C° 0 mm 2 mps 751 mmHg 83%
    16:00 +6°C° 0 mm 2 mps 751 mmHg 86%
    17:00 +6°C° 0 mm 2 mps 751 mmHg 86%
    18:00 +6°C° 0 mm 2 mps 751 mmHg 87%
    19:00 +6°C° 0 mm 2 mps 751 mmHg 87%
    20:00 +6°C° 0 mm 2 mps 751 mmHg 87%
    21:00 +6°C° 0 mm 2 mps 752 mmHg 87%
    22:00 +6°C° 0 mm 2 mps 752 mmHg 86%
    23:00 +6°C° 0 mm 2 mps 752 mmHg 86%

    18 December, Wednesday

    Time Temperature Precipitation Wind Pressure Humidity
    00:00 +6°C° 0 mm 2 mps 752 mmHg 86%
    01:00 +5°C° 0 mm 3 mps 752 mmHg 86%
    02:00 +5°C° 0 mm 3 mps 752 mmHg 86%
    03:00 +5°C° 0 mm 3 mps 752 mmHg 86%
    04:00 +5°C° 0 mm 3 mps 752 mmHg 86%
    05:00 +5°C° 0 mm 3 mps 752 mmHg 85%
    06:00 +5°C° 0 mm 3 mps 752 mmHg 85%
    07:00 +5°C° 0 mm 3 mps 752 mmHg 84%
    08:00 +6°C° 0 mm 4 mps 753 mmHg 80%
    09:00 +6°C° 0 mm 4 mps 753 mmHg 77%
    10:00 +7°C° 0 mm 5 mps 753 mmHg 73%
    11:00 +7°C° 0 mm 4 mps 753 mmHg 72%
    12:00 +8°C° 0 mm 4 mps 754 mmHg 71%
    13:00 +9°C° 0 mm 3 mps 754 mmHg 69%
    14:00 +8°C° 0 mm 3 mps 754 mmHg 75%
    15:00 +8°C° 0 mm 3 mps 755 mmHg 81%
    16:00 +7°C° 0 mm 2 mps 755 mmHg 86%
    17:00 +7°C° 0 mm 2 mps 756 mmHg 88%
    18:00 +7°C° 0 mm 2 mps 756 mmHg 89%
    19:00 +7°C° 0 mm 2 mps 757 mmHg 91%
    20:00 +6°C° 0 mm 2 mps 757 mmHg 91%
    21:00 +7°C° 0 mm 1 mps 757 mmHg 91%
    22:00 +7°C° 0 mm 1 mps 758 mmHg 91%
    23:00 +6°C° 0 mm 1 mps 758 mmHg 91%

    19 December, Thursday

    Time Temperature Precipitation Wind Pressure Humidity
    00:00 +6°C° 0 mm 1 mps 758 mmHg 92%
    01:00 +6°C° 0 mm 1 mps 758 mmHg 92%
    02:00 +5°C° 0 mm 1 mps 758 mmHg 93%
    03:00 +4°C° 0 mm 2 mps 757 mmHg 93%
    04:00 +4°C° 0 mm 2 mps 757 mmHg 94%
    05:00 +4°C° 0 mm 2 mps 757 mmHg 94%
    06:00 +4°C° 0 mm 2 mps 757 mmHg 94%
    07:00 +2°C° 0 mm 3 mps 757 mmHg 94%
    08:00 +3°C° 0 mm 3 mps 757 mmHg 92%
    09:00 +3°C° 0 mm 4 mps 757 mmHg 91%
    10:00 +3°C° 0 mm 4 mps 757 mmHg 89%
    11:00 +3°C° 0 mm 5 mps 757 mmHg 86%
    12:00 +3°C° 0 mm 5 mps 756 mmHg 82%
    13:00 +5°C° 0 mm 5 mps 756 mmHg 79%
    14:00 +3°C° 0 mm 6 mps 755 mmHg 80%
    15:00 +3°C° 0 mm 6 mps 755 mmHg 81%
    16:00 +3°C° 0 mm 6 mps 755 mmHg 82%
    17:00 +3°C° 0 mm 6 mps 754 mmHg 81%
    18:00 +3°C° 0 mm 6 mps 754 mmHg 81%
    19:00 +3°C° 0 mm 7 mps 754 mmHg 81%
    20:00 +3°C° 0.2 mm 7 mps 753 mmHg 83%
    21:00 +3°C° 0.2 mm 7 mps 753 mmHg 85%
    22:00 +3°C° 0.2 mm 7 mps 753 mmHg 87%
    23:00 +3°C° 0.6 mm 6 mps 752 mmHg 88%
    Show more